Find Starlink 5670

NORAD ID: 55341 Int'l Des: 2023-013 Owner: SPXS Country: US Constellation: starlink operational
LEOCIRCULAR

Live Position

Loading 3D Globe...

About Starlink 5670

Description loading...

Upcoming Passes

Passes for default location (London). Set your location on the main map for personalized predictions.

Altitude History

Loading altitude history...

Two-Line Element Set

1 55341U 23013L 26123.90157140 .00002188 00000-0 89048-4 0 9990
2 55341 43.0056 351.9201 0001406 267.9310 92.1381 15.27571430180118
Epoch: May 3, 2026 • Age: 10 hours

Current Status

Altitude 484.1 km
Velocity 7.63 km/s
Sub-Earth Point 28.49°N, 54.14°E
Launch Date Jan 26, 2023
Age 3.2 years
Type internet

Technical Details

Classification Payload
Mass 305.00 kg
Dry Mass 290.00 kg
Total Mass 305.00 kg
Length 0.20 m
Diameter 2.80 m
Span 9.00 m
Shape Box + pan
Manufacturer SPXS
Bus Type Starlink
Phase Status In Orbit
Owner/State SPXS/US

Most Searched